Home   Weather   Preveza   Past weeks

Flag for Greece Past Weather in Preveza, Greece — Yesterday and Last 2 Weeks

68 °F

Partly sunny.

Feels Like: 68 °F
Forecast: 58 / 64 °F
Wind: 6 mph from Northeast

Location: Aktion Airport

Current Time: Oct 27, 2016 at 10:10:41 AM

Latest Report: Oct 27, 2016 at 9:50 AM

Visibility: N/A

Pressure: 30.04 "Hg

Humidity: 83%

Dew Point: 63 °F

Location of PrevezaLocation

Past Weather in Preveza — Graph


Preveza Temperature Yesterday

Maximum temperature yesterday: 72 °F (at 1:50 PM)
Minimum temperature yesterday: 57 °F (at 7:50 AM)
Average temperature yesterday: 66 °F

High & Low Weather Summary for the Past Weeks

High79 °F (Oct 15, 2:50 PM)100% (Oct 23, 1:50 AM)30.24 "Hg (Oct 23, 1:50 AM)
Low52 °F (Oct 13, 5:50 AM)36% (Oct 18, 2:50 PM)29.77 "Hg (Oct 12, 8:20 AM)
Average67 °F70%30.08 "Hg
* Reported Oct 12 8:20 AM — Oct 27 8:50 AM, Preveza, Weather by CustomWeather, © 2016

Note: Actual official high and low records may vary slightly from our data, if they occured in-between our weather recording intervals... More about our weather records


Preveza Weather History for the Previous 24 Hours

Scroll right to see more
Time TempWeatherWind HumidityBarometerVisibility
8:50 AM
Thu, Oct 27
64 °FPartly sunny.6 mph88%30.01 "HgN/A
8:20 AM64 °FPartly sunny.7 mph88%30.01 "HgN/A
7:50 AM64 °FPassing clouds.7 mph88%30.01 "HgN/A
7:20 AM64 °FPassing clouds.8 mph88%29.98 "HgN/A
6:50 AM64 °FPassing clouds.7 mph88%29.98 "HgN/A
6:20 AM64 °FPassing clouds.7 mph88%29.98 "HgN/A
5:50 AM64 °FPassing clouds.6 mph83%30.01 "HgN/A
4:50 AM64 °FPassing clouds.6 mph88%30.01 "HgN/A
3:50 AM64 °FPassing clouds.6 mph88%30.01 "HgN/A
2:50 AM64 °FPassing clouds.2 mph88%30.01 "HgN/A
1:50 AM64 °FPassing clouds.2 mph88%30.01 "HgN/A
12:50 AM64 °FPassing clouds.5 mph88%30.04 "HgN/A
11:50 PM
Wed, Oct 26
64 °FPassing clouds.No wind88%30.04 "HgN/A
10:50 PM68 °FPassing clouds.2 mph83%30.04 "HgN/A
9:50 PM68 °FPassing clouds.2 mph83%30.04 "HgN/A
8:50 PM68 °FPassing clouds.6 mph83%30.04 "HgN/A
8:20 PM70 °FPassing clouds.8 mph78%30.04 "HgN/A
7:50 PM68 °FPassing clouds.3 mph83%30.04 "HgN/A
7:20 PM68 °FPassing clouds.7 mph83%30.04 "HgN/A
6:50 PM68 °FPassing clouds.6 mph83%30.04 "HgN/A
6:20 PM70 °FPartly sunny.8 mph78%30.04 "HgN/A
5:50 PM70 °FPartly sunny.8 mph73%30.04 "HgN/A
5:20 PM72 °FPartly sunny.7 mph73%30.07 "HgN/A
4:50 PM72 °FPartly sunny.7 mph73%30.07 "HgN/A
4:20 PM72 °FPartly sunny.7 mph73%30.07 "HgN/A
3:50 PM72 °FOvercast.7 mph69%30.07 "HgN/A
3:20 PM72 °FOvercast.6 mph73%30.07 "HgN/A
2:50 PM72 °FPartly sunny.2 mph69%30.09 "HgN/A
2:20 PM72 °FOvercast.2 mph65%30.09 "HgN/A
1:50 PM72 °FOvercast.3 mph65%30.09 "HgN/A
1:20 PM70 °FSunny.5 mph69%30.12 "Hg10 mi
12:50 PM70 °FSunny.5 mph69%30.12 "Hg10 mi
12:20 PM68 °FSunny.7 mph69%30.12 "Hg10 mi
11:50 AM68 °FSunny.7 mph69%30.12 "Hg10 mi
11:20 AM66 °FSunny.6 mph78%30.15 "Hg10 mi
10:50 AM66 °FSunny.6 mph73%30.15 "Hg10 mi
10:20 AM66 °FSunny.6 mph73%30.15 "Hg10 mi
Weather by CustomWeather, © 2016

See weather overviewHow to use our weather pages